Location: Walsall
(52.5862°N, 1.9829°W)
Time: 01:47:40
(UTC+01:00)

X-37B - Pass Details

Date: 27 June 2021
Orbit: 383 x 392 km, 45.0° (Epoch: 01 July)

Event Time Altitude Azimuth Distance (km) Brightness Sun altitude
Rises 22:24:15 0° 242° (WSW) 2,255 4.6 -5.9°
Reaches altitude 10° 22:26:38 10° 225° (SW) 1,402 3.3 -6.1°
Maximum altitude 22:29:03 20° 175° (S) 948 2.1 -6.3°
Drops below altitude 10° 22:31:28 10° 125° (SE) 1,402 2.8 -6.5°
Enters shadow 22:32:10 - 118° (ESE) 1,635 3.2 -6.6°
